Location: Barmer
(52.8667°N, 0.7000°E)
Time: 14:55:37
(UTC+00:00)

Daily predictions for brighter satellites

Satellite Brightness Start Highest point End
(mag) Time Altitude Azimuth Time Altitude Azimuth Time Altitude Azimuth
Cosmos 2278 Rocket 3.1 21:09:29 10° SSE 21:14:18 30° ESE 21:19:08 10° NE
CENTAUR R/B 4.3 21:09:40 10° W 21:15:45 40° NNW 21:23:17 10° NE
Cosmos 1666 Rocket 3.6 21:12:40 10° N 21:17:01 71° ENE 21:21:17 10° SSE
USA 238 DEB 3.9 21:17:28 10° S 21:23:12 43° ESE 21:29:30 10° NE
USA 238 3.9 21:17:42 10° S 21:23:25 43° ESE 21:29:43 10° NE
SPOT 3 Rocket 3.8 21:18:40 10° S 21:23:47 72° WSW 21:28:59 10° NNW
Lacrosse 5 rocket 0.9 21:20:34 10° WSW 21:24:11 89° NNW 21:27:43 10° ENE
Cosmos 1743 Rocket 4.3 21:20:37 10° NNW 21:24:51 51° W 21:29:05 10° S
Cosmos 1943 Rocket 2.6 21:20:39 10° S 21:25:58 44° ESE 21:31:18 10° NE
YAOGAN 11 4.5 21:26:17 10° NNE 21:30:42 70° WNW 21:35:02 10° SSW
Cosmos 1745 Rocket 4.2 21:28:24 10° NNW 21:34:42 78° W 21:41:02 10° S
USA 245 3.6 21:36:03 10° S 21:38:45 35° WSW 21:41:06 10° NNW
Cosmos 1515 Rocket 4.4 21:36:41 10° SSE 21:40:35 34° E 21:44:30 10° NNE
USA 186 3.7 21:43:40 10° WSW 21:44:26 11° W 21:45:11 10° WNW
Cosmos 1624 Rocket 4.1 21:39:54 10° NNW 21:45:14 84° WSW 21:50:25 11° SSE
Okean 2 3.7 21:42:57 10° SSE 21:46:36 44° E 21:50:18 10° NNE
Cosmos 1633 Rocket 3.2 21:42:25 10° NNW 21:46:49 73° W 21:51:11 10° S
Cosmos 1680 Rocket 3.6 21:43:17 10° S 21:48:22 59° ESE 21:53:30 10° NNE
COSMOS 2406 4.0 21:43:48 10° NNW 21:49:16 44° NE 21:54:41 10° ESE
Cosmos 1400 Rocket 3.1 21:46:29 10° N 21:50:03 47° ENE 21:53:10 13° SE
Cosmos 2056 Rocket 3.6 21:49:12 10° NNW 21:54:17 70° WSW 21:59:06 11° SSE
Meteor 1-23 Rocket 4.2 21:56:03 10° S 22:01:36 84° ESE 22:07:13 10° NNE
USA 215 3.3 22:02:46 10° ESE 22:09:18 85° NNE 22:15:53 10° WNW
USA 276 2.8 22:08:46 10° SSW 22:10:39 20° SSE 22:12:42 10° ESE
Cosmos 2074 Rocket 4.3 22:07:06 10° N 22:13:16 59° ENE 22:18:40 14° SSE
NOSS 2-1 (E) 3.1 22:12:26 10° SSW 22:16:05 48° SE 22:19:09 10° NE
Ariane Rocket 4.2 22:12:59 10° SSW 22:17:36 35° W 22:22:16 10° NNW
Okean O Rocket 4.2 22:20:18 10° WSW 22:22:03 12° W 22:23:49 10° WNW
NOSS 3-1 (C) 4.5 22:21:46 13° SE 22:23:48 17° ESE 22:27:07 10° ENE
USA 308 3.6 22:26:25 16° SE 22:26:25 16° SE 22:28:28 10° E
Lacrosse 4 Rocket 3.2 22:23:30 10° NNW 22:27:10 28° NE 22:30:50 10° E
Helios 1B rocket 2.7 22:24:53 15° SE 22:27:25 43° ENE 22:30:44 10° N
Cosmos 1470 Rocket 4.5 22:23:19 10° NNW 22:27:33 44° W 22:31:40 10° SSW
Cosmos 2315 Rocket 4.4 22:23:16 10° SSW 22:29:26 64° WNW 22:35:38 10° N
Cosmos 1812 0.4 22:29:02 10° N 22:30:44 89° W 22:31:08 44° S
ATLAS 5 CENTAUR R/B 4.4 22:25:21 10° SW 22:31:24 87° NW 22:58:45 10° ENE
USA 59 Rocket -0.7 22:31:14 10° SW 22:34:38 74° NW 22:37:34 10° NE
Cosmos 1933 Rocket 3.6 22:30:40 10° NNW 22:35:01 78° W 22:38:23 16° S
Cosmos 1441 Rocket 2.8 22:33:46 18° S 22:36:00 65° E 22:39:12 10° NNE
ATLAS 5 CENTAUR R/B 2.3 22:37:18 16° SE 22:37:28 16° ESE 22:39:26 10° E
Okean 3 3.3 22:34:54 15° S 22:38:10 81° E 22:42:13 10° NNE
CZ-2C R/B 4.1 22:36:46 10° SW 22:38:50 19° W 22:40:55 10° NW
BREEZE-M DEB (TANK) 3.3 22:29:42 10° W 22:38:53 80° SSW 22:41:50 10° ESE
Cosmos 2112 Rocket 4.2 22:33:56 10° SSW 22:39:05 72° WNW 22:44:19 10° NNE
NOSS 2-1 (D) 2.8 22:36:05 10° SW 22:39:35 80° NW 22:42:35 10° NE
Cosmos 1110 Rocket 4.1 22:36:17 10° NNW 22:41:25 65° WSW 22:45:24 17° S
SWAS 4.2 22:40:43 10° SSW 22:44:45 74° ESE 22:48:49 10° NE
Cosmos 2344 3.7 22:39:39 10° SW 22:47:12 77° NW 22:54:34 10° NE
GEOS 3 Rocket 4.3 22:42:19 10° ESE 22:47:34 57° NE 22:52:52 10° NW
Cosmos 2082 Rocket 2.9 22:45:53 10° NW 22:51:11 44° WSW 22:55:23 16° S
Cosmos 1452 Rocket 3.5 22:46:35 10° NNW 22:51:52 80° WSW 22:55:52 18° SSE
ACS3 Solar Sail 3.5 22:49:04 10° NE 22:52:41 17° E 22:56:20 10° ESE
Helios 1A 2.8 22:49:13 10° NNE 22:53:12 89° ESE 22:56:22 16° SSW
SL-4 R/B 2.7 22:55:57 21° SE 22:55:57 21° SE 22:58:05 10° E
Cosmos 2278 Rocket 2.7 22:52:25 10° SW 22:58:01 62° NW 23:03:40 10° NNE
NOSS 2-1 (C) 3.2 22:56:03 10° WSW 22:59:30 64° NW 23:02:29 10° NE
Cosmos 2184 Rocket 4.2 22:53:59 10° NNW 23:00:16 74° W 23:05:24 16° S
TIMED 4.4 22:56:51 13° SSW 23:00:36 87° ESE 23:04:53 10° NNE
Lacrosse 5 rocket 2.3 22:57:32 10° W 23:00:57 42° N 23:04:17 10° ENE
Cosmos 2154 Rocket 4.1 22:55:16 10° NNW 23:01:29 77° W 23:06:28 17° S
Cosmos 614 Rocket 4.1 22:57:56 17° S 23:01:48 58° ESE 23:06:46 10° NNE
Cosmos 1174 3.4 23:00:34 10° SW 23:04:26 78° SE 23:07:44 10° NE
Cosmos 1869 Rocket 4.1 23:03:01 10° NNW 23:07:12 51° W 23:10:17 17° SSW
CENTAUR R/B 4.4 23:01:21 10° NW 23:08:09 41° NNE 23:16:23 10° E
Timation 2 Rocket 4.2 23:01:53 10° SW 23:08:16 82° NW 23:14:59 10° NNE
ARIANE 5 R/B 2.6 23:05:10 20° SSE 23:08:17 90° W 23:12:43 10° NNW
SL-8 R/B 4.0 23:05:06 10° SW 23:09:33 42° SSE 23:14:01 10° E
CZ-2C R/B 3.8 23:05:00 10° NNE 23:09:43 72° ESE 23:13:09 18° S
Cosmos 1943 Rocket 3.4 23:04:22 10° WSW 23:09:45 43° NW 23:15:08 10° NNE
ARGOS Delta rocket 4.1 23:05:44 10° N 23:11:02 83° WNW 23:15:12 15° SSW
USA 238 DEB 4.1 23:07:40 10° WSW 23:13:55 62° NW 23:20:54 10° NE
USA 238 4.1 23:07:53 10° WSW 23:14:07 63° NW 23:21:07 10° NE
CZ-2C R/B 3.9 23:11:27 10° NNE 23:16:29 38° E 23:19:49 18° SSE
SAR-Lupe-2 4.1 23:15:20 19° SE 23:17:17 42° ENE 23:20:22 10° N
Cosmos 1733 Rocket 3.0 23:14:55 10° N 23:19:15 89° WSW 23:22:03 21° S
BREEZE-M R/B 4.3 23:15:17 10° WSW 23:20:33 70° S 23:31:36 10° E
CZ-2C R/B 3.2 23:16:25 14° SE 23:20:46 50° ENE 23:25:54 10° N
SL-12 R/B(2) 4.5 23:15:35 11° SSW 23:23:04 59° ESE 23:32:39 10° NE
Cosmos 2341 Rocket 4.3 23:17:45 10° N 23:23:57 61° ENE 23:28:53 16° SSE
ALOS 2 2.6 23:21:23 21° S 23:24:18 75° WSW 23:28:43 10° NNW
Cosmos 1707 Rocket 3.8 23:22:47 21° SSE 23:25:33 58° E 23:29:55 10° NNE
Cosmos 2228 Rocket 3.7 23:26:00 20° SSE 23:28:40 44° E 23:32:53 10° NNE
IRIDIUM 104 4.4 23:23:41 10° N 23:28:57 75° E 23:32:38 20° SSE
USA 290 2.1 23:26:21 10° NNW 23:29:30 79° ENE 23:31:10 25° SSE
Cosmos 1356 Rocket 4.0 23:25:36 10° N 23:29:32 48° ENE 23:32:18 18° SE
COSMOS 2406 3.8 23:28:13 10° NW 23:33:35 44° WSW 23:37:19 19° S
Cosmos 1315 Rocket 2.6 23:32:00 10° NNW 23:35:50 83° E 23:38:04 23° SSE
Cosmos 2369 Rocket 2.5 23:32:22 19° S 23:36:09 51° ESE 23:41:35 10° NE
ARIANE 6 FM1 Upper Stage 2.7 23:34:00 17° SSW 23:37:03 58° SE 23:41:06 10° NE
Cosmos 1862 Rocket 3.5 23:34:20 22° S 23:37:05 81° E 23:41:25 10° NNE
IRIDIUM 114 4.3 23:32:51 10° N 23:38:07 87° E 23:41:46 20° S
Cosmos 2297 4.1 23:36:39 19° S 23:40:29 49° ESE 23:45:59 10° NE
USA 276 1.9 23:40:29 10° WSW 23:42:57 43° S 23:45:40 10° ESE
Cosmos 1656 Rocket 3.8 23:40:54 10° SW 23:46:23 73° WNW 23:52:00 10° NNE
IRIDIUM 103 4.4 23:42:01 10° N 23:47:16 80° W 23:50:55 20° S
USA 308 2.1 23:45:04 15° WSW 23:47:24 65° SSE 23:51:27 10° ENE
Okean 1-7 3.1 23:48:24 20° SSW 23:51:12 73° WNW 23:55:28 10° N
USA 215 3.6 23:47:35 15° SSE 23:52:42 45° SW 23:58:57 10° WNW
PSLV R/B 3.8 23:48:32 10° NNE 23:53:12 76° WNW 23:56:35 19° SSW
